Home > Weather > Derby > Past weeks

Flag for United Kingdom Past Weather in Derby, England, United Kingdom — Yesterday and Last 2 Weeks

Now
52 °F

Clear.


Feels Like: 49 °F
Forecast: 45 / 63 °F
Wind: 9 mph from Southeast

Location: East Midlands

Current Time: May 27, 2016 at 11:09:21 PM

Latest Report: May 27, 2016 at 10:20 PM


Visibility: 10 mi

Pressure: 30.07 "Hg

Humidity: 82%

Dew Point: 46 °F

Location of DerbyLocation

Past Weather in Derby — Graph

°F

Derby Temperature Yesterday

Maximum temperature yesterday: 57 °F (at 1:50 PM)
Minimum temperature yesterday: 46 °F (at 2:50 AM)
Average temperature yesterday: 52 °F

High & Low Weather Summary for the Past Weeks

 TemperatureHumidityPressure
High64 °F (May 17, 1:50 PM)100% (May 16, 5:50 AM)30.24 "Hg (May 16, 5:50 AM)
Low37 °F (May 14, 5:20 AM)39% (May 15, 5:50 PM)29.59 "Hg (May 18, 8:50 AM)
Average53 °F76%29.96 "Hg
* Reported May 12 9:20 PM — May 27 9:50 PM, Derby, Weather by CustomWeather, © 2016

Note: Actual official high and low records may vary slightly from our data, if they occured in-between our weather recording intervals... More about our weather records

Advertising

Derby Weather History for the Previous 24 Hours

Scroll right to see more
 ConditionsComfort  
Time TempWeatherWind HumidityBarometerVisibility
9:50 PM
Fri, May 27
52 °FSunny.8 mph82%30.07 "Hg10 mi
9:20 PM54 °FSunny.10 mph82%30.07 "Hg10 mi
8:50 PM55 °FSunny.10 mph77%30.07 "Hg10 mi
8:20 PM57 °FSunny.9 mph72%30.07 "Hg10 mi
7:50 PM59 °FSunny.12 mph68%30.04 "Hg10 mi
7:20 PM61 °FPassing clouds.9 mph63%30.04 "HgN/A
6:50 PM61 °FPassing clouds.10 mph63%30.04 "HgN/A
6:20 PM63 °FScattered clouds.8 mph59%30.04 "HgN/A
5:50 PM61 °FPartly sunny.9 mph63%30.04 "HgN/A
5:20 PM61 °FPartly sunny.8 mph59%30.04 "HgN/A
4:50 PM63 °FScattered clouds.6 mph56%30.04 "HgN/A
4:20 PM64 °FScattered clouds.7 mph56%30.07 "HgN/A
3:50 PM64 °FScattered clouds.6 mph49%30.07 "HgN/A
3:20 PM61 °FScattered clouds.8 mph55%30.07 "HgN/A
2:50 PM64 °FPassing clouds.6 mph52%30.07 "HgN/A
2:20 PM63 °FPassing clouds.5 mph56%30.07 "HgN/A
1:50 PM61 °FScattered clouds.8 mph59%30.07 "HgN/A
1:20 PM59 °FPartly sunny.7 mph63%30.07 "HgN/A
12:20 PM61 °FPartly sunny.9 mph63%30.07 "HgN/A
11:50 AM57 °FScattered clouds.9 mph67%30.07 "HgN/A
11:20 AM61 °FPartly sunny.9 mph63%30.07 "HgN/A
10:20 AM57 °FScattered clouds.6 mph72%30.09 "HgN/A
9:50 AM57 °FPassing clouds.6 mph77%30.09 "HgN/A
9:20 AM55 °FPassing clouds.5 mph72%30.09 "HgN/A
8:50 AM54 °FPassing clouds.5 mph77%30.09 "Hg5 mi
8:20 AM52 °FPassing clouds.2 mph82%30.07 "Hg4 mi
7:20 AM46 °FFog.3 mph100%30.07 "Hg1 mi
6:50 AM46 °FFog.3 mph93%30.07 "Hg1 mi
6:20 AM45 °FFog.3 mph100%30.07 "Hg0 mi
5:50 AM43 °FFog.5 mph100%30.07 "Hg0 mi
5:20 AM43 °FFog.6 mph100%30.07 "Hg1 mi
4:50 AM41 °FFog.3 mph100%30.04 "Hg1 mi
4:20 AM43 °FQuite cool.5 mph100%30.04 "Hg2 mi
3:50 AM45 °FLight fog.5 mph100%30.04 "Hg2 mi
3:20 AM45 °FClear.3 mph100%30.04 "Hg5 mi
2:50 AM46 °FClear.3 mph93%30.04 "Hg6 mi
2:20 AM46 °FClear.2 mph93%30.04 "Hg10 mi
1:50 AM46 °FClear.3 mph93%30.04 "Hg10 mi
1:20 AM46 °FClear.5 mph93%30.04 "Hg10 mi
12:50 AM48 °FClear.6 mph94%30.04 "Hg10 mi
12:20 AM48 °FPassing clouds.6 mph94%30.04 "HgN/A
11:50 PM
Thu, May 26
50 °FPassing clouds.6 mph88%30.04 "HgN/A
11:20 PM50 °FPassing clouds.6 mph88%30.04 "HgN/A
Weather by CustomWeather, © 2016

See weather overviewHow to use our weather pages